This is the latest recevied weather packets stored in our database for station/object OE3CJB-13. If no packets are shown the sender has not sent any weather packets the latest 10 day(s).
| Time | Temp. | Humidity | Pressure | Rain* | Wind** | Luminosity | Snow |
|---|---|---|---|---|---|---|---|
| 1777284035 | 15.56° C | 14% | 744.9 hPa | 0 mm | - | - | - |
| 1777283120 | 15.56° C | 15% | 744.9 hPa | 0 mm | - | - | - |
| 1777282256 | 15° C | 17% | 743.4 hPa | 0 mm | - | - | - |
| 1777281344 | 14.44° C | 18% | 743.5 hPa | 0 mm | - | - | - |
| 1777280435 | 13.89° C | 18% | 742.8 hPa | 0 mm | - | - | - |
| 1777279520 | 13.89° C | 20% | 742.7 hPa | 0 mm | - | - | - |
| 1777278657 | 13.33° C | 20% | 742.9 hPa | 0 mm | - | - | - |
| 1777277792 | 12.78° C | 21% | 740.4 hPa | 0 mm | - | - | - |
| 1777276834 | 12.22° C | 22% | 740.4 hPa | 0 mm | - | - | - |
| 1777275968 | 11.67° C | 25% | 738.9 hPa | 0 mm | - | - | - |
| 1777275104 | 11.11° C | 26% | 737.3 hPa | 0 mm | - | - | - |
| 1777274144 | 10.56° C | 29% | 735.7 hPa | 0 mm | - | - | - |
| 1777273282 | 10.56° C | 30% | 733.6 hPa | 0 mm | - | - | - |
| 1777272370 | 9.44° C | 31% | 730.4 hPa | 0 mm | - | - | - |
| 1777271504 | 9.44° C | 34% | 729.6 hPa | 0 mm | - | - | - |
| 1777270544 | 8.89° C | 35% | 729.6 hPa | 0 mm | - | - | - |
| 1777269731 | 7.78° C | 39% | 728.8 hPa | 0 mm | - | - | - |
| 1777268720 | 6.67° C | 47% | 728.8 hPa | 0 mm | - | - | - |
| 1777267856 | 6.11° C | 50% | 728.9 hPa | 0 mm | - | - | - |
| 1777266992 | 5.56° C | 52% | 730.4 hPa | 0 mm | - | - | - |
| 1777266035 | 5° C | 55% | 729.6 hPa | 0 mm | - | - | - |
| 1777265169 | 3.89° C | 57% | 730.4 hPa | 0 mm | - | - | - |
| 1777264352 | 3.89° C | 57% | 729.6 hPa | 0 mm | - | - | - |
| 1777263391 | 3.89° C | 57% | 730.3 hPa | 0 mm | - | - | - |
| 1777262435 | 3.89° C | 57% | 730.2 hPa | 0 mm | - | - | - |
* Rain latest hour (hover to see other rain measurements)
** Current wind speed in m/s (hover to see current wind gust speed)